Location: Grand Moustoir
(47.8355°N, 3.3120°W)
Time: 06:50:33
(UTC+00:00)

BREEZE-M DEB (TANK) - Pass Details

Date: 20 January 2020
Orbit: 322 x 11938 km, 49.7° (Epoch: 24 February)

Event Time Altitude Azimuth Distance (km) Brightness Sun altitude
Exits shadow 05:26:31 73° 30° (NNE) 625 3.6 -24.4°
Drops below altitude 10° 05:33:06 10° 97° (E) 3,441 8.6 -23.3°
Sets 05:38:23 0° 100° (E) 5,764 10.1 -22.4°
